[[{"header":{"parameterUnit":"m.s-1","parameterCategory":1,"la1":30.2991,"la2":30.254,"lo1":-89.0895,"lo2":-89.0444,"dy":0.0017,"dx":0.0017,"nx":28,"ny":28,"refTime":"2025-12-17T09:00:00:Z","depth":0,"parameterNumber":2,"parameterNumberName":"U-component_of_WINDS"},"data":[0,0,0,0,0,0,0,0,0,0,0,0,0,0,0,0,0,0,0,0,0,0,0,0,0,0,0,0,0,0,0,0,0,0,0,0,0,0,0,0,0,0,0,0,0,0,0,0,0,0,0,0,0,0,0,0,0,0,-3.7342,-3.7342,0,-3.7372,-3.7372,-3.7372,-3.7244,-3.724,-3.7236,-3.7232,-3.7265,-3.727,-3.7274,0,0,0,0,0,0,0,0,0,0,0,0,0,-3.7174,-3.7178,-3.7342,-3.7342,-3.7342,-3.7372,-3.7372,-3.7372,-3.7244,-3.724,-3.7235,-3.7231,-3.7264,-3.7269,-3.7274,0,0,0,0,0,0,0,0,0,0,0,0,0,-3.723,-3.7179,-3.7342,-3.7282,-3.7277,-3.7371,-3.7372,-3.7372,-3.7245,-3.724,-3.7234,-3.7229,-3.7262,-3.7269,-3.7275,-3.7429,0,0,-3.7295,-3.7298,0,0,0,0,0,0,0,0,-3.7227,-3.7236,-3.729,-3.7286,-3.7281,-3.7298,-3.7325,-3.7392,-3.7247,-3.7257,-3.7232,-3.7226,-3.7281,-3.7286,-3.7304,-3.7431,-3.7432,-3.7296,-3.73,-3.7303,-3.7305,0,0,0,0,0,0,0,-3.7224,-3.7234,-3.7353,-3.7291,-3.7285,-3.7254,-3.7256,-3.7337,-3.7301,-3.7256,-3.7247,-3.7252,-3.7277,-3.7298,-3.7304,-3.7433,-3.7296,-3.7302,-3.7306,-3.7308,-3.7688,-3.7694,0,0,0,0,0,0,-3.7227,-3.7232,-3.7352,-3.7354,-3.7239,-3.7262,-3.7263,-3.7298,-3.7299,-3.7294,-3.7257,-3.7246,-3.7289,-3.7296,-3.7304,-3.7486,-3.7303,-3.7309,-3.7313,-3.7682,-3.769,-3.7696,0,0,0,0,0,0,-3.7224,-3.7239,-3.7351,-3.7291,-3.7303,-3.7271,-3.7311,-3.7302,-3.7322,-3.73,-3.7293,-3.7284,-3.7285,-3.7295,-3.7399,-3.7485,-3.7312,-3.7318,-3.7675,-3.7684,-3.7693,-3.785,0,0,0,0,0,0,-3.722,-3.7239,-3.7297,-3.7293,-3.7306,-3.7446,-3.7316,-3.7306,-3.7334,-3.732,-3.7324,-3.7319,-3.7281,-3.739,-3.7406,-3.7491,-3.7323,-3.7667,-3.7679,-3.769,-3.7837,-3.7863,-3.7886,0,0,0,0,0,-3.7214,-3.734,-3.7301,-3.7316,-3.7378,-3.7451,-3.7459,-3.7412,-3.7341,-3.7399,-3.7385,-3.7319,-3.7473,-3.7402,-3.7418,-3.7507,-3.7662,-3.7676,-3.7689,-3.7826,-3.7858,-3.7885,0,0,0,0,0,0,-3.7356,-3.7339,-3.7295,-3.7423,-3.7439,-3.7429,-3.7501,-3.7447,-3.7485,-3.7471,-3.7411,-3.7413,-3.7528,-3.7527,-3.7449,-3.7656,-3.7555,-3.7573,-3.7653,-3.7684,-3.7708,-3.7707,-3.7329,0,0,0,0,0,-3.7402,-3.7462,-3.7444,-3.7559,-3.7569,-3.7534,-3.7564,-3.7527,-3.7542,-3.7548,-3.7541,-3.7559,-3.7611,-3.7647,-3.7693,-3.7835,-3.7835,-3.7904,-3.7929,-3.7949,-3.7966,-3.8042,-3.8073,-3.7742,-3.7742,-3.7741,0,0,-3.7498,-3.7496,-3.7538,-3.7587,-3.7595,-3.766,-3.7541,-3.7614,-3.7661,-3.7559,-3.7658,-3.7653,-3.7669,-3.7793,-3.7847,-3.7796,-3.8057,-3.7967,-3.7983,-3.7989,-3.8059,-3.8091,-3.8119,-3.7751,-3.7749,-3.7748,0,0,-3.7706,-3.771,-3.7807,-3.7817,-3.7831,-3.7807,-3.783,-3.7828,-3.7822,-3.7919,-3.7844,-3.7899,-3.799,-3.8005,-3.8024,-3.8237,-3.8179,-3.8254,-3.8383,-3.8458,-3.8484,-3.8507,-3.8584,-3.8613,-3.827,-3.8271,-3.8271,0,-3.7825,-3.7918,-3.7864,-3.7942,-3.7966,-3.7875,-3.7973,-3.7986,-3.8016,-3.8035,-3.7976,-3.8088,-3.8092,-3.8219,-3.8271,-3.8289,-3.8315,-3.8254,-3.8484,-3.8506,-3.8527,-3.8601,-3.863,-3.828,-3.8279,-3.8278,-3.8277,0,-3.8063,-3.8129,-3.8205,-3.8235,-3.8268,-3.8356,-3.8315,-3.8354,-3.8314,-3.8296,-3.8397,-3.8398,-3.8444,-3.847,-3.8432,-3.8592,-3.856,-3.8494,-3.8391,-3.8569,-3.8637,-3.8665,-3.8293,-3.829,-3.8287,-3.8285,0,0,-3.8363,-3.8361,-3.839,-3.8403,-3.8411,-3.8462,-3.8545,-3.8589,-3.8625,-3.8647,-3.8717,-3.8795,-3.8734,-3.8756,-3.8718,-3.8783,-3.8954,-3.8709,-3.8708,-3.8756,-3.9133,-3.9184,-3.9218,-3.8914,-3.8919,-3.8923,-3.9132,0,-3.8569,-3.8712,-3.8665,-3.881,-3.8871,-3.8785,-3.8858,-3.8871,-3.8857,-3.8906,-3.889,-3.8947,-3.8861,-3.8874,-3.8935,-3.8921,-3.9029,-3.8904,-3.898,-3.8983,-3.8981,-3.9253,-3.9307,-3.9505,-3.9158,-3.9163,-3.9166,0,-3.8828,-3.8861,-3.9013,-3.9011,-3.9034,-3.9101,-3.9138,-3.9186,-3.9199,-3.9184,-3.9208,-3.9156,-3.9239,-3.9134,-3.9247,-3.9164,-3.9191,-3.9189,-3.9195,-3.9203,-3.9087,-3.927,-3.9566,-3.9597,-3.9207,-3.9204,-3.9201,0,-3.9035,-3.9116,-3.9218,-3.9231,-3.9231,-3.928,-3.9282,-3.9289,-3.9319,-3.9351,-3.937,-3.9411,-3.9435,-3.9468,-3.9429,-3.9356,-3.9549,-3.9441,-3.954,-3.9541,-3.9586,-3.9585,-3.9894,-3.9601,-3.9601,-3.96,-3.9599,0,-3.9271,-3.9367,-3.931,-3.9373,-3.9479,-3.9423,-3.953,-3.9522,-3.953,-3.959,-3.9517,-3.9575,-3.9519,-3.9572,-3.9541,-3.9641,-3.9651,-3.9642,-3.9634,-3.965,-3.9652,-3.9669,-3.9655,-3.9608,-3.9606,-3.9605,-3.9603,0,-3.9521,-3.9486,-3.9591,-3.9582,-3.9582,-3.966,-3.9652,-3.971,-3.9689,-3.9767,-3.9781,-3.975,-3.9808,-3.9772,-3.9831,-3.981,-3.9941,-3.9912,-3.9937,-3.993,-4.0032,-4.0024,-4.0366,-4.0408,-4.0086,-4.0089,-4.0092,0,-3.9675,-3.9747,-3.9745,-3.978,-3.9787,-3.9844,-3.9873,-3.9821,-3.9855,-3.9876,-3.9932,-3.9984,-4.0023,-4.0121,-4.0104,-4.0149,-4.0122,-4.0238,-4.0128,-4.0143,-4.0126,-4.0123,-4.0131,-4.0262,-4.0265,-4.0268,-4.0271,0,-3.9952,-3.9931,-3.9977,-4.0017,-4.0054,-4.0083,-4.0105,-4.0138,-4.0086,-4.0128,-4.0187,-4.0217,-4.0277,-4.0331,-4.0369,-4.0371,-4.0314,-4.0305,-4.0331,-4.035,-4.0362,-4.0359,-4.0,-4.0298,-4.0295,-4.0293,-4.0292,-4.0291,-4.016,-4.022,-4.0229,-4.0282,-4.0293,-4.0316,-4.037,-4.0356,-4.0404,-4.0449,-4.0415,-4.0486,-4.0497,-4.0542,-4.0552,-4.0606,-4.0559,-4.0596,-4.0606,-4.0616,-4.0631,-4.0352,-4.0613,-4.0612,-4.0611,-4.061,-4.061,0,-4.0436,-4.0436,-4.0485,-4.052,-4.0562,-4.0501,-4.0524,-4.0563,-4.0626,-4.0641,-4.068,-4.0748,-4.08,-4.0786,-4.0832,-4.0878,-4.0853,-4.0893,-4.089,-4.0892,-4.067,-4.0644,-4.0912,-4.0912,-4.0912,-4.0912,-4.0912,-4.0912,-4.0584,-4.0684,-4.0664,-4.0768,-4.0768,-4.0836,-4.0854,-4.0875,-4.0887,-4.0966,-4.1008,-4.0998,-4.1002,-4.1047,-4.1092,-4.1087,-4.1108,-4.1158,-4.1143,-4.0937,-4.0907,-4.0879,-4.0854,-4.1162,-4.1163,-4.136,-4.1362,-4.1364]},{"header":{"parameterUnit":"m.s-1","parameterCategory":1,"la1":30.2991,"la2":30.254,"lo1":-89.0895,"lo2":-89.0444,"dy":0.0017,"dx":0.0017,"nx":28,"ny":28,"refTime":"2025-12-17T09:00:00:Z","depth":0,"parameterNumber":3,"parameterNumberName":"V-component_of_WINDS"},"data":[0,0,0,0,0,0,0,0,0,0,0,0,0,0,0,0,0,0,0,0,0,0,0,0,0,0,0,0,0,0,0,0,0,0,0,0,0,0,0,0,0,0,0,0,0,0,0,0,0,0,0,0,0,0,0,0,0,0,-3.4167,-3.4167,0,-3.4156,-3.4156,-3.4156,-3.409,-3.4089,-3.4087,-3.4086,-3.4075,-3.4076,-3.4077,0,0,0,0,0,0,0,0,0,0,0,0,0,-3.4129,-3.413,-3.4167,-3.4167,-3.4167,-3.4156,-3.4156,-3.4156,-3.4091,-3.4089,-3.4087,-3.4085,-3.4074,-3.4076,-3.4077,0,0,0,0,0,0,0,0,0,0,0,0,0,-3.4135,-3.4131,-3.4167,-3.4133,-3.413,-3.4156,-3.4156,-3.4156,-3.4091,-3.4089,-3.4086,-3.4084,-3.4074,-3.4076,-3.4077,-3.4136,0,0,-3.4083,-3.4084,0,0,0,0,0,0,0,0,-3.4135,-3.4136,-3.4138,-3.4135,-3.4132,-3.4122,-3.4139,-3.4149,-3.4092,-3.4106,-3.4086,-3.4083,-3.4092,-3.4093,-3.4096,-3.4136,-3.4135,-3.4083,-3.4084,-3.4085,-3.4085,0,0,0,0,0,0,0,-3.4134,-3.4136,-3.4163,-3.4138,-3.4134,-3.4117,-3.4116,-3.4141,-3.4113,-3.4104,-3.4099,-3.4099,-3.409,-3.4094,-3.4095,-3.4135,-3.4083,-3.4084,-3.4086,-3.4086,-3.422,-3.4223,0,0,0,0,0,0,-3.4139,-3.4137,-3.4163,-3.4162,-3.4127,-3.412,-3.4118,-3.4128,-3.4112,-3.4107,-3.4101,-3.4096,-3.4092,-3.4093,-3.4094,-3.4161,-3.4085,-3.4086,-3.4087,-3.4218,-3.4221,-3.4223,0,0,0,0,0,0,-3.4138,-3.4142,-3.4164,-3.4148,-3.415,-3.4123,-3.4135,-3.4129,-3.4133,-3.411,-3.4104,-3.411,-3.409,-3.4092,-3.4126,-3.4159,-3.4087,-3.4089,-3.4215,-3.4219,-3.4222,-3.4295,0,0,0,0,0,0,-3.4138,-3.4142,-3.4165,-3.4149,-3.4151,-3.4196,-3.4137,-3.413,-3.4136,-3.4129,-3.4117,-3.4113,-3.4089,-3.4123,-3.4128,-3.416,-3.409,-3.4212,-3.4216,-3.4221,-3.4289,-3.43,-3.431,0,0,0,0,0,-3.4136,-3.4186,-3.4166,-3.417,-3.4178,-3.4198,-3.4199,-3.417,-3.4139,-3.4161,-3.4146,-3.4113,-3.4155,-3.4127,-3.4131,-3.4166,-3.4209,-3.4215,-3.4221,-3.4284,-3.4298,-3.431,0,0,0,0,0,0,-3.4207,-3.4184,-3.4161,-3.4207,-3.4205,-3.4187,-3.4214,-3.4186,-3.4192,-3.4186,-3.415,-3.4148,-3.4187,-3.4179,-3.4149,-3.422,-3.4176,-3.4183,-3.4224,-3.4237,-3.4247,-3.4247,-3.4092,0,0,0,0,0,-3.4228,-3.4246,-3.4224,-3.4267,-3.4267,-3.4241,-3.4248,-3.4226,-3.4222,-3.4221,-3.4208,-3.4206,-3.4218,-3.4227,-3.4237,-3.4288,-3.4283,-3.4313,-3.4324,-3.4332,-3.4338,-3.4363,-3.4375,-3.4242,-3.4242,-3.4242,0,0,-3.4271,-3.426,-3.4274,-3.4281,-3.4276,-3.4295,-3.424,-3.4263,-3.4276,-3.4224,-3.4255,-3.4246,-3.424,-3.4282,-3.43,-3.4278,-3.4374,-3.4339,-3.4347,-3.4348,-3.437,-3.4382,-3.4393,-3.4246,-3.4245,-3.4244,0,0,-3.4359,-3.4354,-3.4388,-3.4384,-3.4378,-3.4359,-3.4368,-3.4353,-3.4345,-3.4375,-3.4336,-3.4351,-3.4374,-3.4371,-3.4372,-3.4458,-3.4427,-3.4462,-3.4516,-3.4541,-3.4551,-3.456,-3.4589,-3.46,-3.4468,-3.4468,-3.4468,0,-3.4414,-3.4441,-3.4409,-3.4433,-3.4436,-3.439,-3.4423,-3.4421,-3.4419,-3.4422,-3.4397,-3.4423,-3.4416,-3.4456,-3.4476,-3.448,-3.4487,-3.4463,-3.4552,-3.4561,-3.4569,-3.4596,-3.4607,-3.4472,-3.4472,-3.4472,-3.4471,0,-3.4507,-3.4526,-3.4554,-3.4552,-3.4559,-3.4588,-3.456,-3.457,-3.4547,-3.4532,-3.4562,-3.4552,-3.4559,-3.4566,-3.4545,-3.4603,-3.4589,-3.4559,-3.4513,-3.4586,-3.4611,-3.4621,-3.4478,-3.4477,-3.4476,-3.4475,0,0,-3.464,-3.4619,-3.463,-3.4627,-3.4616,-3.463,-3.4656,-3.4662,-3.4671,-3.467,-3.4691,-3.471,-3.4681,-3.4683,-3.466,-3.4682,-3.4748,-3.4648,-3.4648,-3.4666,-3.4809,-3.4831,-3.4844,-3.4728,-3.473,-3.4731,-3.4809,0,-3.4724,-3.4767,-3.4738,-3.4786,-3.4802,-3.4757,-3.478,-3.4775,-3.4761,-3.4772,-3.4756,-3.477,-3.4732,-3.4732,-3.4752,-3.4736,-3.4776,-3.473,-3.4745,-3.4746,-3.4747,-3.4857,-3.4881,-3.4955,-3.4819,-3.482,-3.4822,0,-3.4827,-3.483,-3.4879,-3.4862,-3.4868,-3.4889,-3.4891,-3.4903,-3.4896,-3.4884,-3.4885,-3.4857,-3.488,-3.4836,-3.4868,-3.4837,-3.4842,-3.4835,-3.4837,-3.4836,-3.4788,-3.4859,-3.4978,-3.4989,-3.4837,-3.4836,-3.4835,0,-3.4917,-3.4933,-3.4964,-3.4964,-3.4946,-3.4961,-3.4955,-3.4945,-3.495,-3.4952,-3.4954,-3.4959,-3.4962,-3.4966,-3.4939,-3.491,-3.4973,-3.4928,-3.4963,-3.4964,-3.4978,-3.4977,-3.5099,-3.4983,-3.4983,-3.4983,-3.4983,0,-3.5012,-3.5044,-3.5004,-3.5023,-3.5057,-3.5023,-3.5057,-3.5045,-3.5037,-3.5053,-3.5015,-3.503,-3.4994,-3.5005,-3.4984,-3.5013,-3.5014,-3.5005,-3.4999,-3.5008,-3.5009,-3.5009,-3.5003,-3.4986,-3.4985,-3.4984,-3.4984,0,-3.5119,-3.5094,-3.5124,-3.5104,-3.51,-3.5125,-3.5107,-3.5124,-3.5107,-3.5126,-3.5129,-3.5102,-3.5113,-3.5087,-3.5095,-3.508,-3.512,-3.5107,-3.5123,-3.5118,-3.5155,-3.5151,-3.528,-3.5295,-3.5171,-3.5172,-3.5173,0,-3.5181,-3.5204,-3.5186,-3.5193,-3.5188,-3.5201,-3.5205,-3.5172,-3.5178,-3.5171,-3.5188,-3.5196,-3.52,-3.522,-3.5201,-3.5206,-3.5191,-3.5236,-3.5192,-3.52,-3.519,-3.5189,-3.519,-3.5245,-3.5247,-3.5248,-3.5249,0,-3.5293,-3.5279,-3.5287,-3.5289,-3.5295,-3.5296,-3.5294,-3.5302,-3.5267,-3.5275,-3.5286,-3.5289,-3.5296,-3.5304,-3.5305,-3.5297,-3.5267,-3.5263,-3.5271,-3.528,-3.5288,-3.5283,-3.5146,-3.526,-3.5259,-3.5258,-3.5258,-3.5257,-3.5378,-3.5396,-3.5385,-3.5394,-3.5389,-3.5388,-3.5401,-3.5385,-3.5393,-3.5396,-3.5376,-3.5391,-3.5381,-3.5379,-3.5374,-3.5385,-3.5364,-3.5377,-3.538,-3.5383,-3.5388,-3.5287,-3.5385,-3.5385,-3.5384,-3.5384,-3.5384,0,-3.5488,-3.5478,-3.5487,-3.5484,-3.5491,-3.5462,-3.5457,-3.5465,-3.5478,-3.5472,-3.5476,-3.5488,-3.5495,-3.5476,-3.548,-3.5492,-3.5478,-3.5494,-3.5492,-3.549,-3.5407,-3.5399,-3.5505,-3.5505,-3.5505,-3.5505,-3.5505,-3.5505,-3.5545,-3.5572,-3.5557,-3.5581,-3.5571,-3.5584,-3.5584,-3.5582,-3.5577,-3.5591,-3.5596,-3.5583,-3.5572,-3.5574,-3.5579,-3.5573,-3.5576,-3.5596,-3.5586,-3.5508,-3.5496,-3.5485,-3.5477,-3.5598,-3.5598,-3.5668,-3.5668,-3.5669]}]]